Etusivu
METAR-TAF:

METAR-TAF

Lentoasemat :

Quentin Aanenson Field

Luverne, Minnesota, Yhdysvallat

Leveyspiiri: 43-37-16N, Pituuspiiri: 096-12-58W, korkeus merenpinnasta: 436 m

Tämänhetkinen sää

Tämä raportti tehtiin 11 minuuttia sitten, kello 10.39 UTC
Tuuli 4 kn etelästä/lounaasta
Lämpötila -17°C
Kosteus 84%
Ilmanpaine 1034 hPa
Näkyvyys: 16.1 km
selkeää

METAR: KLYV 121039Z AUTO 20004KT 10SM CLR M17/M19 A3053 RMK AO2

Aika: 04:50 (10:50 UTC)


TAF: puuttuu

Säähavainnot ja -ennusteet yli 4000 lentoasemalta (METAR- ja TAF-raportit).

Käytössä olevat sääasemat on merkitty karttaan keltaisilla ja punaisilla pisteillä.

Aseta hiiri pisteen päälle nähdäksesi sääaseman nimen.

Klikkaa sitten nähdäksesi säähavainnot ja -ennusteet.

Kartan vaihtaminen: klikkaa mustalla rastilla varustettuja vihreitä pisteitä, niin voit zoomata sisään; viivalla varustettua vihreää pistettä, niin voit zoomata ulos tai vihreitä nuolia, niin pääset viereisille kartoille.


METAR-TAF: